[[{"header":{"parameterUnit":"m.s-1","parameterCategory":1,"la1":30.2991,"la2":30.254,"lo1":-89.0895,"lo2":-89.0444,"dy":0.0017,"dx":0.0017,"nx":28,"ny":28,"refTime":"2025-11-12T03:00:00:Z","depth":0,"parameterNumber":2,"parameterNumberName":"U-component_of_WINDS"},"data":[0,0,0,0,0,0,0,0,0,0,0,0,0,0,0,0,0,0,0,0,0,0,0,0,0,0,0,0,0,0,0,0,0,0,0,0,0,0,0,0,0,0,0,0,0,0,0,0,0,0,0,0,0,0,0,0,0,0,-0.1542,-0.1542,0,-0.1525,-0.1525,-0.1525,-0.1523,-0.1524,-0.1524,-0.1524,-0.1505,-0.1504,-0.1504,0,0,0,0,0,0,0,0,0,0,0,0,0,-0.1572,-0.1572,-0.1542,-0.1542,-0.1541,-0.1525,-0.1525,-0.1525,-0.1523,-0.1524,-0.1524,-0.1524,-0.1505,-0.1505,-0.1504,0,0,0,0,0,0,0,0,0,0,0,0,0,-0.1558,-0.1571,-0.1542,-0.1539,-0.1538,-0.1525,-0.1525,-0.1525,-0.1523,-0.1524,-0.1524,-0.1524,-0.1506,-0.1505,-0.1504,-0.1492,0,0,-0.1501,-0.15,0,0,0,0,0,0,0,0,-0.1558,-0.1556,-0.154,-0.1539,-0.1539,-0.1527,-0.1529,-0.1513,-0.1523,-0.1529,-0.1524,-0.1524,-0.1512,-0.151,-0.1507,-0.1491,-0.149,-0.15,-0.15,-0.1499,-0.1499,0,0,0,0,0,0,0,-0.1559,-0.1557,-0.1535,-0.1539,-0.1539,-0.1538,-0.1536,-0.1526,-0.1519,-0.1529,-0.1528,-0.1527,-0.1512,-0.1508,-0.1506,-0.149,-0.15,-0.15,-0.1499,-0.1499,-0.1464,-0.1464,0,0,0,0,0,0,-0.1561,-0.1558,-0.1536,-0.1535,-0.1549,-0.1537,-0.1535,-0.153,-0.1519,-0.1518,-0.1526,-0.1527,-0.1509,-0.1507,-0.1505,-0.1491,-0.1499,-0.1498,-0.1498,-0.1464,-0.1464,-0.1464,0,0,0,0,0,0,-0.1562,-0.1559,-0.1536,-0.1546,-0.1543,-0.1537,-0.1531,-0.153,-0.1526,-0.1518,-0.1516,-0.1523,-0.1509,-0.1507,-0.1495,-0.149,-0.1498,-0.1497,-0.1465,-0.1464,-0.1464,-0.1462,0,0,0,0,0,0,-0.1563,-0.1559,-0.1555,-0.1546,-0.1543,-0.1527,-0.153,-0.1529,-0.1524,-0.1524,-0.1514,-0.1513,-0.1509,-0.1497,-0.1494,-0.1489,-0.1496,-0.1465,-0.1465,-0.1464,-0.1463,-0.1462,-0.1461,0,0,0,0,0,-0.1564,-0.1554,-0.1555,-0.1552,-0.1537,-0.1526,-0.1524,-0.1521,-0.1524,-0.1519,-0.1514,-0.1513,-0.1492,-0.1496,-0.1493,-0.1487,-0.1465,-0.1465,-0.1464,-0.1463,-0.1462,-0.1461,0,0,0,0,0,0,-0.1562,-0.1553,-0.1553,-0.1541,-0.1535,-0.1526,-0.152,-0.152,-0.1512,-0.1512,-0.1508,-0.1506,-0.1494,-0.149,-0.1495,-0.1476,-0.1479,-0.1478,-0.1479,-0.1478,-0.1477,-0.1478,-0.1495,0,0,0,0,0,-0.156,-0.1552,-0.1545,-0.1535,-0.1532,-0.1527,-0.1522,-0.152,-0.1513,-0.151,-0.1504,-0.1497,-0.1489,-0.1483,-0.1475,-0.1462,-0.146,-0.1457,-0.1456,-0.1456,-0.1454,-0.1448,-0.1447,-0.1462,-0.1462,-0.1462,0,0,-0.1556,-0.155,-0.1546,-0.1535,-0.1529,-0.1522,-0.1524,-0.1516,-0.151,-0.1508,-0.1497,-0.1493,-0.1485,-0.1473,-0.1467,-0.1469,-0.145,-0.1455,-0.1454,-0.1453,-0.1447,-0.1446,-0.1445,-0.1461,-0.1461,-0.1461,0,0,-0.1545,-0.154,-0.1531,-0.1526,-0.1519,-0.1515,-0.1513,-0.1506,-0.1503,-0.1492,-0.1491,-0.1484,-0.1469,-0.1464,-0.1459,-0.1447,-0.1447,-0.1445,-0.144,-0.1434,-0.1433,-0.1432,-0.1428,-0.1426,-0.1444,-0.1444,-0.1444,0,-0.154,-0.1529,-0.1526,-0.1518,-0.1514,-0.1513,-0.1504,-0.15,-0.1489,-0.1486,-0.1488,-0.1471,-0.1465,-0.1452,-0.1449,-0.1446,-0.1443,-0.1446,-0.1433,-0.1432,-0.1431,-0.1427,-0.1426,-0.1444,-0.1444,-0.1444,-0.1444,0,-0.1524,-0.1516,-0.151,-0.1502,-0.1496,-0.1488,-0.1484,-0.1479,-0.1478,-0.1474,-0.1464,-0.1457,-0.1448,-0.1445,-0.1443,-0.1432,-0.1433,-0.1434,-0.1437,-0.143,-0.1426,-0.1424,-0.1443,-0.1443,-0.1443,-0.1443,0,0,-0.151,-0.1501,-0.1499,-0.1495,-0.1488,-0.1481,-0.1473,-0.1465,-0.1461,-0.1454,-0.1447,-0.1436,-0.1437,-0.1432,-0.143,-0.1424,-0.1416,-0.1426,-0.1426,-0.1425,-0.1404,-0.1403,-0.1401,-0.1416,-0.1416,-0.1415,-0.1405,0,-0.1498,-0.1483,-0.1482,-0.1469,-0.1462,-0.1462,-0.1455,-0.1449,-0.1446,-0.144,-0.1436,-0.1428,-0.1431,-0.1428,-0.1422,-0.1418,-0.1412,-0.1419,-0.1409,-0.1409,-0.1411,-0.1399,-0.1398,-0.1388,-0.1403,-0.1403,-0.1403,0,-0.1481,-0.1475,-0.1462,-0.1456,-0.1453,-0.1447,-0.144,-0.1434,-0.1428,-0.1426,-0.1421,-0.142,-0.1411,-0.1415,-0.1404,-0.1409,-0.1405,-0.1402,-0.1402,-0.14,-0.1405,-0.1397,-0.1384,-0.1383,-0.14,-0.14,-0.1401,0,-0.1472,-0.1461,-0.1452,-0.1449,-0.1442,-0.1437,-0.1434,-0.1429,-0.1424,-0.1418,-0.1415,-0.1408,-0.1404,-0.1398,-0.1395,-0.1399,-0.1384,-0.1388,-0.1382,-0.1382,-0.1379,-0.1379,-0.1365,-0.1377,-0.1377,-0.1377,-0.1377,0,-0.1458,-0.145,-0.1448,-0.1442,-0.1433,-0.1431,-0.1423,-0.142,-0.1415,-0.1409,-0.1408,-0.1402,-0.1399,-0.1393,-0.1391,-0.1382,-0.138,-0.1378,-0.1378,-0.1378,-0.1378,-0.1375,-0.1375,-0.1376,-0.1376,-0.1376,-0.1377,0,-0.1446,-0.1444,-0.1434,-0.1429,-0.1428,-0.1422,-0.1417,-0.1412,-0.1409,-0.1401,-0.1399,-0.1396,-0.1388,-0.1385,-0.1376,-0.1374,-0.1364,-0.1364,-0.1366,-0.1366,-0.1361,-0.1361,-0.1344,-0.1342,-0.1355,-0.1355,-0.1355,0,-0.1437,-0.1431,-0.1426,-0.1422,-0.1419,-0.1413,-0.1409,-0.1407,-0.1403,-0.1397,-0.1392,-0.1385,-0.1379,-0.1367,-0.1364,-0.1357,-0.1357,-0.1351,-0.1355,-0.1356,-0.1356,-0.1357,-0.1356,-0.135,-0.135,-0.135,-0.135,0,-0.1422,-0.1422,-0.1416,-0.141,-0.1406,-0.1401,-0.1396,-0.1393,-0.1391,-0.1386,-0.1379,-0.1375,-0.1366,-0.1359,-0.1352,-0.1349,-0.1349,-0.1349,-0.1347,-0.1347,-0.1348,-0.1348,-0.1364,-0.1349,-0.1349,-0.1349,-0.1349,-0.1349,-0.1411,-0.1406,-0.1402,-0.1396,-0.1393,-0.1389,-0.1384,-0.1381,-0.1376,-0.1369,-0.1368,-0.1361,-0.1356,-0.1347,-0.1344,-0.1338,-0.1339,-0.1337,-0.1336,-0.1335,-0.1335,-0.135,-0.1336,-0.1336,-0.1337,-0.1337,-0.1337,0,-0.1396,-0.1394,-0.1388,-0.1382,-0.1378,-0.1379,-0.1374,-0.137,-0.1364,-0.136,-0.1355,-0.1347,-0.1341,-0.1337,-0.1331,-0.1327,-0.1327,-0.1325,-0.1325,-0.1324,-0.1334,-0.1336,-0.1325,-0.1325,-0.1325,-0.1325,-0.1325,-0.1325,-0.1387,-0.1379,-0.1378,-0.1369,-0.1367,-0.136,-0.1357,-0.1353,-0.135,-0.1342,-0.1337,-0.1335,-0.1331,-0.1325,-0.1319,-0.1318,-0.1316,-0.1314,-0.1313,-0.1322,-0.1324,-0.1325,-0.1327,-0.1314,-0.1314,-0.1304,-0.1304,-0.1304]},{"header":{"parameterUnit":"m.s-1","parameterCategory":1,"la1":30.2991,"la2":30.254,"lo1":-89.0895,"lo2":-89.0444,"dy":0.0017,"dx":0.0017,"nx":28,"ny":28,"refTime":"2025-11-12T03:00:00:Z","depth":0,"parameterNumber":3,"parameterNumberName":"V-component_of_WINDS"},"data":[0,0,0,0,0,0,0,0,0,0,0,0,0,0,0,0,0,0,0,0,0,0,0,0,0,0,0,0,0,0,0,0,0,0,0,0,0,0,0,0,0,0,0,0,0,0,0,0,0,0,0,0,0,0,0,0,0,0,-0.5412,-0.5411,0,-0.5401,-0.5401,-0.5401,-0.5383,-0.5382,-0.5382,-0.5382,-0.5373,-0.5373,-0.5374,0,0,0,0,0,0,0,0,0,0,0,0,0,-0.542,-0.542,-0.5412,-0.5411,-0.5411,-0.5401,-0.5401,-0.5401,-0.5383,-0.5382,-0.5382,-0.5381,-0.5373,-0.5373,-0.5374,0,0,0,0,0,0,0,0,0,0,0,0,0,-0.5413,-0.542,-0.5412,-0.5401,-0.54,-0.5401,-0.5401,-0.5401,-0.5383,-0.5382,-0.5382,-0.5381,-0.5373,-0.5373,-0.5374,-0.5385,0,0,-0.5374,-0.5374,0,0,0,0,0,0,0,0,-0.5414,-0.5413,-0.5403,-0.5402,-0.54,-0.5393,-0.5401,-0.5396,-0.5383,-0.5389,-0.5382,-0.5381,-0.538,-0.538,-0.5379,-0.5385,-0.5384,-0.5374,-0.5374,-0.5374,-0.5374,0,0,0,0,0,0,0,-0.5414,-0.5414,-0.5408,-0.5403,-0.5401,-0.5398,-0.5397,-0.54,-0.5388,-0.5389,-0.5387,-0.5386,-0.538,-0.5379,-0.5379,-0.5384,-0.5374,-0.5374,-0.5374,-0.5374,-0.5402,-0.5403,0,0,0,0,0,0,-0.5416,-0.5414,-0.5408,-0.5407,-0.5406,-0.5398,-0.5397,-0.5396,-0.5388,-0.5386,-0.5387,-0.5385,-0.5379,-0.5379,-0.5378,-0.5394,-0.5374,-0.5374,-0.5374,-0.5402,-0.5402,-0.5403,0,0,0,0,0,0,-0.5416,-0.5415,-0.5408,-0.541,-0.5409,-0.5399,-0.5398,-0.5396,-0.5395,-0.5386,-0.5384,-0.5388,-0.5379,-0.5378,-0.5384,-0.5393,-0.5374,-0.5375,-0.5401,-0.5402,-0.5403,-0.5423,0,0,0,0,0,0,-0.5416,-0.5416,-0.5419,-0.541,-0.5409,-0.5413,-0.5398,-0.5396,-0.5395,-0.5393,-0.5387,-0.5386,-0.5378,-0.5384,-0.5384,-0.5393,-0.5375,-0.54,-0.5401,-0.5402,-0.5422,-0.5425,-0.5427,0,0,0,0,0,-0.5417,-0.5425,-0.5419,-0.5418,-0.5413,-0.5413,-0.5413,-0.5403,-0.5396,-0.54,-0.5395,-0.5386,-0.5392,-0.5385,-0.5385,-0.5394,-0.5399,-0.5401,-0.5402,-0.542,-0.5424,-0.5427,0,0,0,0,0,0,-0.5435,-0.5423,-0.5417,-0.5422,-0.5419,-0.541,-0.5415,-0.5407,-0.5406,-0.5405,-0.5394,-0.5393,-0.5401,-0.5398,-0.539,-0.5406,-0.5394,-0.5396,-0.5408,-0.5412,-0.5414,-0.5416,-0.5375,0,0,0,0,0,-0.5439,-0.544,-0.543,-0.5436,-0.5435,-0.5425,-0.5425,-0.5418,-0.5415,-0.5414,-0.5409,-0.5406,-0.5408,-0.5409,-0.541,-0.5421,-0.5421,-0.5427,-0.543,-0.5432,-0.5434,-0.5443,-0.5447,-0.5408,-0.5408,-0.5408,0,0,-0.5449,-0.5443,-0.5444,-0.544,-0.5436,-0.5439,-0.5424,-0.5427,-0.5429,-0.5414,-0.542,-0.5416,-0.5413,-0.5423,-0.5426,-0.542,-0.5445,-0.5434,-0.5436,-0.5437,-0.5445,-0.5448,-0.5452,-0.5409,-0.5409,-0.5409,0,0,-0.5467,-0.5462,-0.5467,-0.5465,-0.546,-0.5454,-0.5455,-0.5448,-0.5446,-0.5451,-0.5441,-0.5444,-0.5446,-0.5445,-0.5445,-0.5467,-0.5459,-0.5467,-0.5482,-0.5491,-0.5494,-0.5496,-0.5507,-0.551,-0.5469,-0.5469,-0.5469,0,-0.548,-0.5482,-0.5471,-0.5475,-0.5475,-0.5461,-0.5468,-0.5466,-0.5462,-0.5463,-0.5456,-0.5461,-0.5457,-0.5468,-0.5473,-0.5473,-0.5476,-0.5468,-0.5494,-0.5497,-0.5499,-0.5509,-0.5512,-0.547,-0.547,-0.547,-0.547,0,-0.5499,-0.5501,-0.5506,-0.5503,-0.5503,-0.5508,-0.55,-0.5502,-0.5496,-0.5491,-0.5499,-0.5494,-0.5496,-0.5497,-0.5491,-0.5507,-0.5504,-0.5496,-0.5484,-0.5504,-0.5513,-0.5516,-0.5472,-0.5471,-0.5471,-0.5471,0,0,-0.5528,-0.552,-0.5522,-0.5522,-0.5517,-0.5519,-0.5525,-0.5526,-0.5529,-0.5527,-0.5533,-0.5536,-0.5529,-0.5529,-0.5523,-0.553,-0.5551,-0.5521,-0.5521,-0.5529,-0.5572,-0.558,-0.5584,-0.5545,-0.5546,-0.5546,-0.5573,0,-0.5547,-0.5556,-0.5547,-0.5558,-0.5562,-0.555,-0.5556,-0.5554,-0.5551,-0.5554,-0.555,-0.5554,-0.5543,-0.5544,-0.555,-0.5547,-0.556,-0.5544,-0.5553,-0.5554,-0.5556,-0.5588,-0.5596,-0.5622,-0.5576,-0.5577,-0.5577,0,-0.557,-0.557,-0.5582,-0.5578,-0.5579,-0.5584,-0.5586,-0.5589,-0.5588,-0.5585,-0.5586,-0.5579,-0.5587,-0.5574,-0.5586,-0.5576,-0.5579,-0.5579,-0.558,-0.5582,-0.5568,-0.5594,-0.5629,-0.5634,-0.5582,-0.5582,-0.5582,0,-0.5593,-0.5596,-0.5604,-0.5603,-0.5599,-0.5603,-0.5602,-0.56,-0.5602,-0.5604,-0.5606,-0.5609,-0.5611,-0.5614,-0.5609,-0.56,-0.5623,-0.5609,-0.5623,-0.5623,-0.5629,-0.5629,-0.5668,-0.5628,-0.5628,-0.5628,-0.5627,0,-0.5616,-0.5624,-0.5614,-0.5619,-0.5629,-0.562,-0.563,-0.5628,-0.5627,-0.5633,-0.5623,-0.5629,-0.5621,-0.5627,-0.5623,-0.5635,-0.5635,-0.5635,-0.5634,-0.5637,-0.5638,-0.564,-0.5639,-0.5629,-0.5628,-0.5628,-0.5628,0,-0.5643,-0.5636,-0.5645,-0.5641,-0.564,-0.5648,-0.5645,-0.5651,-0.5647,-0.5655,-0.5656,-0.5651,-0.5658,-0.5653,-0.5659,-0.5657,-0.5674,-0.5669,-0.5674,-0.5674,-0.5689,-0.5688,-0.5732,-0.5739,-0.5692,-0.5693,-0.5693,0,-0.5659,-0.5665,-0.5662,-0.5665,-0.5664,-0.5669,-0.5672,-0.5664,-0.5667,-0.5669,-0.5675,-0.5681,-0.5685,-0.5697,-0.5695,-0.5701,-0.5698,-0.5713,-0.5699,-0.5703,-0.5701,-0.5702,-0.5704,-0.5716,-0.5717,-0.5717,-0.5718,0,-0.5688,-0.5686,-0.5689,-0.5692,-0.5695,-0.5698,-0.5699,-0.5703,-0.5695,-0.57,-0.5707,-0.571,-0.5718,-0.5725,-0.573,-0.5731,-0.5724,-0.5722,-0.5726,-0.573,-0.5734,-0.5735,-0.5684,-0.5721,-0.5721,-0.5721,-0.5721,-0.572,-0.5712,-0.5718,-0.5718,-0.5723,-0.5723,-0.5726,-0.5732,-0.573,-0.5735,-0.574,-0.5736,-0.5745,-0.5747,-0.5754,-0.5755,-0.5764,-0.5758,-0.5763,-0.5764,-0.5766,-0.577,-0.5731,-0.5764,-0.5764,-0.5764,-0.5764,-0.5764,0,-0.5743,-0.5743,-0.5747,-0.575,-0.5755,-0.5748,-0.575,-0.5755,-0.5763,-0.5765,-0.577,-0.578,-0.5788,-0.5787,-0.5795,-0.5802,-0.5799,-0.5804,-0.5805,-0.5806,-0.5773,-0.577,-0.5807,-0.5807,-0.5807,-0.5807,-0.5806,-0.5806,-0.576,-0.5771,-0.5768,-0.5781,-0.578,-0.5789,-0.5792,-0.5795,-0.5797,-0.5808,-0.5815,-0.5814,-0.5816,-0.5824,-0.5832,-0.5831,-0.5836,-0.5843,-0.5842,-0.5812,-0.5808,-0.5804,-0.5801,-0.5843,-0.5843,-0.5874,-0.5874,-0.5874]}]]